Regional Weather Roundup
Issued by NWS

Home | Current Version | Previous Version | Text Only | Print | Product List | Glossary Off
Versions: 1 2 3 4 5 6 7 8 9 10 11 12 13 14 15 16 17 18 19 20 21 22 23 24 25 26 27 28 29 30 31 32 33 34 35 36 37 38 39 40 41 42 43 44 45 46 47 48 49 50

000
ASUS43 KLMK 310502
RWRKY
KENTUCKY REGIONAL WEATHER ROUNDUP
NATIONAL WEATHER SERVICE LOUISVILLE KY
1200 AM EST SAT JAN 31 2015

NOTE "FAIR" INDICATES FEW OR NO CLOUDS BELOW 12,000 FEET
WITH NO SIGNIFICANT WEATHER AND/OR OBSTRUCTIONS TO VISIBILITY.

KYZ001>023-026-027-061>063-070>075-310600-
WESTERN AND SOUTH CENTRAL KENTUCKY

CITY           SKY/WX    TMP DP  RH WIND       PRES   REMARKS
PADUCAH        MOCLDY    27  21  78 CALM      30.44F
HENDERSON      CLEAR     21  18  86 CALM      30.45S
OWENSBORO      CLEAR     26  22  85 CALM      30.46S
HOPKINSVILLE   PTCLDY    30  20  67 NE2       30.43F
BOWLING GREEN  CLEAR     29  19  66 CALM      30.44F
GLASGOW        NOT AVBL
$$

KYZ024-025-028>034-038-045-046-053-310600-
NORTH CENTRAL KENTUCKY

CITY           SKY/WX    TMP DP  RH WIND       PRES   REMARKS
LOUISVILLE/SDF CLEAR     29  16  58 E3        30.45F
LOUISVILLE/LOU CLEAR     26  16  65 CALM      30.45F
FORT KNOX      CLEAR     22  16  75 CALM      30.42F
$$

KYZ035>037-039>044-047>052-055>060-089>105-310600-
NORTHEAST KENTUCKY

CITY           SKY/WX    TMP DP  RH WIND       PRES   REMARKS
LEXINGTON      CLEAR     24  14  65 E3        30.43F
COVINGTON      CLEAR     20  14  77 CALM      30.42F
FRANKFORT      CLEAR     20  14  77 CALM      30.43S
$$

KYZ054-064>069-076>088-106>120-310600-
SOUTHEAST KENTUCKY

CITY           SKY/WX    TMP DP  RH WIND       PRES   REMARKS
JACKSON        CLEAR     23  12  62 CALM      30.40S
LONDON         CLEAR     24  15  68 CALM      30.42R
SOMERSET       NOT AVBL
MIDDLESBORO    NOT AVBL
MONTICELLO     CLEAR     18  14  84 CALM      30.46S
$$



USA.gov is the U.S. government's official web portal to all federal, state and local government web resources and services.